Lid_Strength_Index
9 10 10 10 10 10 10 10 10 9 8 8 8 9 8 9 9 9 9 8 9 8 7 7 7 6 6 5 4 3 2 2 4 3 2 2 3 2 3 2 2 1 1
12 13 13 13 13 13 13 13 12 12 11 11 10 10 10 9 9 9 10 10 10 10 9 9 9 7 8 7 7 7 7 6 6 7 6 6 5 5 4 4 2 1 2
14 14 15 15 15 15 15 14 13 12 12 11 11 11 10 10 9 10 10 10 11 10 10 10 9 9 9 9 9 9 8 7 7 7 8 7 6 6 6 6 5 5 4
15 16 16 16 16 15 15 14 13 13 13 12 12 12 11 10 10 11 11 11 11 11 10 10 9 9 8 8 8 7 7 7 7 8 8 8 7 7 7 8 8 7 6
16 17 17 16 16 16 15 15 15 14 14 14 13 13 12 12 11 11 12 12 12 12 11 10 9 9 9 8 8 8 8 8 9 9 10 9 9 9 9 8 8 8 8
18 18 17 17 17 16 16 16 16 16 16 15 15 14 14 13 11 10 11 12 12 12 12 11 10 11 9 9 8 9 8 10 11 11 11 11 11 11 9 10 10 11 11
18 18 18 18 18 17 17 16 17 17 16 16 15 15 14 13 11 11 11 12 12 11 12 12 12 11 11 10 10 10 10 9 9 10 12 12 12 10 10 10 11 11 11
19 19 19 18 18 17 17 18 17 17 17 16 16 15 14 13 12 12 12 13 13 12 13 13 13 13 11 12 12 12 12 11 11 11 11 11 11 10 10 10 10 10 10
20 20 19 18 18 18 18 18 18 17 17 16 16 15 15 14 13 13 13 13 14 14 14 13 13 13 12 11 13 14 14 13 11 10 10 10 9 9 9 10 11 11 11
20 20 19 18 18 19 19 18 17 17 17 17 16 16 15 16 15 14 14 15 16 15 14 14 14 13 12 12 13 14 15 14 14 13 13 12 12 12 10 10 11 11 11
21 20 20 20 19 19 19 19 18 18 18 18 17 17 16 16 16 14 14 15 16 16 16 15 15 14 13 13 12 14 14 13 13 14 15 15 14 13 12 11 11 10 11
22 21 21 21 21 20 21 20 19 19 19 19 19 19 18 17 17 16 15 15 14 16 16 16 15 14 13 13 13 13 12 13 15 16 17 16 15 14 12 12 11 11 10
23 23 23 22 22 21 21 21 21 20 21 21 21 21 20 19 18 17 17 16 16 17 16 16 15 15 14 15 15 14 15 16 17 18 18 17 15 13 12 13 15 13 12
25 24 23 23 23 22 22 22 22 22 22 22 22 22 21 21 20 19 18 18 17 17 17 17 16 16 16 17 18 17 17 17 18 18 18 17 15 14 13 13 14 13 13
25 25 25 24 24 24 23 24 23 22 21 22 22 21 22 22 20 18 18 18 18 17 17 19 20 21 22 21 21 20 20 19 20 19 18 17 18 18 18 15 15 14 15
27 26 26 26 25 25 25 26 23 21 20 19 19 19 20 19 18 17 17 17 16 16 19 23 24 23 23 23 23 22 21 21 20 19 19 19 20 20 20 19 17 17 17
28 28 28 27 27 27 27 27 28 25 22 21 21 20 20 19 19 18 18 17 17 17 24 24 25 25 25 24 24 24 24 22 22 22 22 21 20 21 21 21 20 20 19
30 29 29 28 28 28 27 28 28 29 29 27 24 22 20 20 19 19 18 18 24 23 25 26 26 26 25 25 24 25 24 24 24 23 23 23 22 22 22 22 23 22 21
30 29 29 29 29 29 28 28 28 28 29 29 27 24 24 21 20 19 19 27 27 26 25 25 24 24 24 24 24 24 24 25 25 25 25 25 24 24 24 23 22 21 22
32 31 30 30 30 29 28 28 28 28 28 28 27 26 25 25 24 22 22 23 24 24 24 24 24 23 24 23 24 24 24 24 24 24 24 24 24 24 24 24 24 23 22
33 33 31 30 30 29 28 29 28 27 27 27 26 25 19 20 22 23 24 24 25 24 24 24 24 24 24 24 24 24 25 25 25 25 25 25 25 25 24 24 24 23 23
34 33 33 32 29 29 29 28 28 28 27 27 26 25 19 23 24 25 25 24 24 24 23 24 24 23 23 23 23 24 24 24 24 24 25 25 25 25 25 25 25 24 23
30 30 30 30 30 30 29 29 29 28 28 27 26 26 25 25 25 24 24 24 23 23 23 23 23 23 22 22 22 22 23 23 23 23 24 24 24 25 25 26 26 26 25
33 32 31 30 30 30 30 29 29 28 28 27 27 26 26 25 25 24 24 23 22 22 22 22 22 22 22 21 21 21 21 21 21 22 22 23 24 24 25 25 26 26 26
33 33 32 31 31 31 30 29 29 28 28 27 27 26 26 25 25 24 23 22 22 22 22 22 21 21 21 21 20 20 20 19 20 20 21 22 23 24 24 25 26 26 26
31 31 31 31 31 30 30 29 29 28 28 27 27 26 26 25 25 24 23 23 22 21 21 22 21 21 21 20 20 19 19 18 19 20 20 21 22 23 24 25 26 26 26